sat.trackr.live / text

‹ back to catalog

STARLINK-4690

NORAD 53604 · 2022-104S

PAYLOAD ACTIVE UNKNOWN

§ Identity

Operator
Country
US
Launch date
2022-08-28
Launch site
AFETR
Launch vehicle
Mass (kg)
RCS (m²)

Purposes: comms

External: N2YO · Heavens-Above · Gunter

§ Orbital elements

Epoch: 2026-09-19T23:44:31.435872Z

Period
93.85 min
Inclination
53.1605°
Eccentricity
0.0001216
Mean motion
15.34385354 rev/d
Perigee alt
461.9 km
Apogee alt
463.6 km
Semi-major
6,840.9 km
B*
2.9814e-5
RAAN
75.9913°
Arg perigee
90.4725°
Mean anomaly
269.6417°
Rev number
22,516

§ Raw data

STARLINK-46901 53604U 22104S   26262.98925273  .00000631  00000+0  29814-4 0  99972 53604  53.1605  75.9913 0001216  90.4725 269.6417 15.34385354225163

JSON: /api/v1/satellites/53604 · /tle

For live sub-satellite position, see the globe view (requires WebGL).

§ Visibility from observer

Set your observer location to see the next 7 days of passes ≥ 10°. The values pass through the URL so the page stays shareable.

No JS? Fill the form by hand. The geolocation button needs JavaScript.